www.pogodaiklimat.ru

Погода и климат >> Архив погоды >> Россия >> Якутия >> Ярольин


ПОГОДА в Ярольине

  • Прогноз погоды в Ярольине
  • Монитор погоды в Ярольине

АРХИВ ПОГОДЫ в Ярольине

Время (UTC), дата Ветер
(напр.,м/с)
 
Видим.   Явления Облачность Т
(С)
Тd
(С)
f
(%)
Тe
(С)
Тes
(С)
Комфортность P
(гПа)
Po
(гПа)
Тmin
(С)
Tmax
(С)
R
(мм)
R24
(мм)
S
(см)
12 17.01 З 3 20 км слаб. снег {метель} 10/0
[Ac As Cs]
-24.7 -27.2 80 -33 -33 опасность
обморожения
1012.3 980.0 -18.8 0.6
15 17.01 З 3 10 км слаб. снег {метель} 10/0
[Ac As Cs]
-25.9 -28.4 79 -35 -35 опасность
обморожения
1013.6 981.2
18 17.01 З 2 50 км {снег, метель} 3/0
[Ac lent]
-28.3 -30.7 80 -36 -36 опасность
обморожения
1016.1 983.3
21 17.01 З 2 50 км 3/0
[Ac lent]
-30.0 -31.7 85 -37 -37 опасность
обморожения
1019.5 986.3
00 18.01 З 1 50 км 3/0
[Ac lent]
-38.3 -40.3 81 -43 -43 опасность
обморожения
1022.0 987.6 -38.5 0.0 10
03 18.01 З 1 50 км 3/0
[Ac lent]
-40.3 -42.7 78 -46 -46 опасность
обморожения
1023.9 989.2 -40.4
06 18.01 штиль 0 50 км 3/0
[Ac lent Cs]
-40.2 -42.2 81 -40 -40 опасность
обморожения
1023.7 989.0
09 18.01 штиль 0 50 км 10/0
[Ac lent Cs]
-39.0 -41.2 79 -39 -39 опасность
обморожения
1022.6 988.0
12 18.01 В 3 50 км позёмок 10/0
[Ac lent Cs]
-34.0 -36.2 80 -44 -44 опасность
обморожения
1019.8 986.1 -33.8
15 18.01 В 2 10 км слаб. снег {метель} 10/0
[Ac As Cs]
-30.5 -33.0 79 -38 -38 опасность
обморожения
1016.7 983.5
18 18.01 В 2 20 км слаб. снег {метель} 10/0
[Ac As Cs]
-27.0 -28.8 85 -34 -34 опасность
обморожения
1012.9 980.3
21 18.01 В 2 20 км слаб. снег {метель} 10/0
[Ac As]
-24.1 -26.0 84 -31 -31 опасность
обморожения
1010.4 978.3
00 19.01 В 1 2000 м снег 10/0
[As op]
-23.2 -25.0 85 -27 -27 1008.6 976.7 -34.0 1 11
03 19.01 В 2 20 км слаб. снег 10/0
[Ac As]
-20.8 -22.7 85 -27 -27 1006.8 975.2
06 19.01 ЮЗ 5 50 км позёмок {снег} 3/0
[Ac lent Cs]
-13.7 -16.4 80 -22 -22 1005.1 974.4
09 19.01 ЮЗ 4 50 км позёмок 3/0
[Ac lent Cs]
-15.2 -17.9 80 -23 -23 1005.6 974.8
12 19.01 ЮЗ 4 50 км позёмок 3/0
[Ac lent]
-15.2 -17.9 80 -23 -23 1005.4 974.6 -13.4 0.3
15 19.01 В 1 50 км {метель} 3/0
[Ac lent]
-22.9 -25.5 79 -26 -26 1005.3 973.5
18 19.01 штиль 0 50 км {метель} 3/0
[Ac lent]
-30.1 -31.9 84 -30 -30 1004.1 971.4
21 19.01 штиль 0 10 км слаб. снег 10/0
[Ac As Cs]
-26.0 -27.8 85 -26 -26 1001.0 969.0
00 20.01 В 2 10 км слаб. снег 10/0
[Ac As]
-22.5 -24.3 85 -29 -29 999.2 967.7 -31.4 0.5 12
03 20.01 В 1 10 км слаб. снег 10/0
[As op]
-21.9 -23.8 85 -25 -25 998.5 967.0
06 20.01 штиль 0 20 км слаб. снег 8/0
[Ac As Cs]
-21.3 -23.2 85 -21 -21 997.6 966.3
09 20.01 штиль 0 50 км {снег} 10/0
[Ac lent Cs]
-23.7 -25.6 84 -24 -24 999.0 967.2
12 20.01 штиль 0 50 км {снег} 4/0
[Ac lent Cs]
-28.6 -30.4 84 -29 -29 999.7 967.3 -15.2 0.8
15 20.01 штиль 0 20 км слаб. снег 10/0
[Ac lent Cs]
-30.5 -32.4 83 -31 -31 опасность
обморожения
1000.0 967.3
18 20.01 штиль 0 20 км слаб. снег 10/0
[Ac As Cs]
-28.2 -30.0 84 -28 -28 999.5 967.2
21 20.01 штиль 0 10 км слаб. снег 10/0
[Ac As Cs]
-25.3 -27.2 84 -25 -25 1000.1 968.2
00 21.01 З 3 10 км слаб. снег {метель} 10/0
[As op]
-20.7 -22.6 85 -28 -28 1001.7 970.2 -31.0 2 13
03 21.01 З 3 10 км слаб. снег {метель} 10/0
[As op]
-20.5 -22.4 85 -28 -28 1004.0 972.6
06 21.01 З 3 10 км слаб. снег {метель} 10/0
[As op]
-20.7 -22.6 85 -28 -28 1006.7 975.1
09 21.01 З 5 20 км слаб. снег {метель} 10/0
[Ac As Cs]
-21.6 -24.1 80 -32 -32 опасность
обморожения
1010.8 978.9
12 21.01 З 3 20 км слаб. снег {метель} 10/0
[Ac As Cs]
-22.6 -24.4 85 -31 -31 опасность
обморожения
1015.0 982.9 -20.2 2
15 21.01 З 1 20 км слаб. снег {метель} 10/0
[Ac As Cs]
-24.5 -26.4 84 -28 -28 1018.1 986.7
18 21.01 З 3 20 км слаб. снег {метель} 10/0
[Ac As Cs]
-25.6 -27.5 84 -34 -34 опасность
обморожения
1021.3 988.6
21 21.01 З 3 20 км слаб. снег {метель} 10/0
[Ac As Cs]
-26.3 -28.1 85 -35 -35 опасность
обморожения
1024.2 991.4
00 22.01 СЗ 1 20 км слаб. снег 10/0
[Ac As Cs]
-27.4 -29.2 85 -31 -31 опасность
обморожения
1026.1 993.2 -27.6 0.9 13
03 22.01 штиль 0 50 км {снег} 10/0
[Ac As Cs]
-28.1 -29.8 85 -28 -28 1027.8 994.6 -28.2
06 22.01 штиль 0 20 км слаб. снег 10/0
[Ac As Cs]
-29.7 -31.5 84 -30 -30 1028.8 995.4
09 22.01 штиль 0 50 км {снег} 3/0
[Cs]
-34.6 -36.2 85 -35 -35 опасность
обморожения
1030.9 996.6
12 22.01 штиль 0 50 км {снег} 3/0
[Cs]
-39.5 -41.7 79 -40 -40 опасность
обморожения
1031.9 996.9 -27.4 0.0
15 22.01 штиль 0 50 км ясно -39.4 -41.7 79 -39 -39 опасность
обморожения
1031.6 996.7
18 22.01 штиль 0 50 км ясно -41.0 -43.2 79 -41 -41 опасность
обморожения
1031.7 996.5
21 22.01 В 1 50 км ясно -41.6 -43.8 79 -47 -47 опасность
обморожения
1031.4 996.2
00 23.01 штиль 0 50 км ясно -42.1 -44.4 78 -42 -42 опасность
обморожения
1031.2 996.0 -43.0 13
03 23.01 В 1 50 км 3/0
[Ac lent]
-43.2 -45.0 82 -49 -49 опасность
обморожения
1031.3 995.9 -43.6
06 23.01 В 1 50 км 3/0
[Ac lent Cs]
-42.0 -44.4 77 -47 -47 опасность
обморожения
1030.6 995.4
09 23.01 В 1 50 км 3/0
[Ac lent Cs]
-41.5 -43.8 78 -47 -47 опасность
обморожения
1030.7 994.5
12 23.01 штиль 0 50 км ясно -42.2 -44.4 79 -42 -42 опасность
обморожения
1030.8 995.6 -41.5
15 23.01 штиль 0 50 км ясно -44.9 -47.2 78 -45 -45 опасность
обморожения
1030.2 995.0
18 23.01 штиль 0 50 км ясно -44.0 -46.4 77 -44 -44 опасность
обморожения
1029.5 994.0
21 23.01 штиль 0 50 км ясно -43.0 -45.0 80 -43 -43 опасность
обморожения
1028.5 993.2
00 24.01 В 1 20 км слаб. снег ясно -42.1 -44.4 78 -48 -48 опасность
обморожения
1027.8 992.7 -45.4 0.0 13
03 24.01 В 1 50 км {снег} 3/0
[Ac lent Cs]
-42.9 -45.0 80 -48 -48 опасность
обморожения
1028.3 993.0
06 24.01 штиль 0 50 км {снег} 3/0
[Ac lent Cs]
-41.5 -43.8 78 -42 -41 опасность
обморожения
1029.2 994.0

 

Местоположение метеостанции Ярольин (Якутия, Россия): широта 67.13 долгота 108.50 высота над уровнем моря 236 м.

В архиве по умолчанию представлена погода в Ярольине за последнюю неделю. Архивные данные за месяц целиком и за предыдущие месяцы, начиная с января 2011 года, Вы можете получить, выбрав интересующий диапазон дат из раскрывающегося списка и нажав кнопку "Ввод!".


*Определитесь, кто Вы:
робот инопланетянин человек

Внимание! Время в таблицах - всемирное. Для получения местного времени необходимо прибавить поправку, которая равна 9 ч.

Смотрите также архив погоды в соседних городах и на ближайших метеорологических станциях:

Погода в Полярном (Якутия, Россия) (176 км)
Погода в Айхале (Якутия, Россия) (187 км)
Погода в Оленеке (Якутия, Россия) (224 км)
Погода в Шелагонцах (Якутия, Россия) (269 км)
Погода в Хабардино (Якутия, Россия) (335 км)
Погода в Джалинде (Якутия, Россия) (399 км)
Погода в Эйке (Якутия, Россия) (412 км)
Погода в Сухане (Якутия, Россия) (442 км)
Погода в Кислокане (Эвенкия, Россия) (449 км)
Погода в Туре (Эвенкия, Россия) (483 км)

Пояснения к столбцам:

Ветер - указаны скорость ветра в м/с - средняя за 10 мин, порывы в срок и между сроками (в фигурных скобках) и направление, откуда дует ветер: С - северный, СВ - северо-восточный, В - восточный, ЮВ - юго-восточный, Ю - южный, ЮЗ - юго-западный, З - западный, СЗ - северо-западный.
Видимость - горизонтальная дальность видимости в метрах или километрах. При видимости от 1 до 10 км при отсутствии осадков обычно наблюдается дымка, при ухудшении видимости до 1 км и менее - туман. В сухую погоду видимость может ухудшаться дымом, пылью или мглою.
Явления - указаны атмосферные явления, наблюдавшиеся в срок или в последний час перед сроком; фигурными скобками обозначены явления, наблюдавшиеся между сроками (за 1-3 часа до срока); квадратными скобками обозначены град или гололедные отложения с указанием их диаметра в мм.
Облачность - указаны через наклонную черту общая и нижняя облачность в баллах и высота нижней границы облаков в метрах; квадратными скобками обозначены формы облаков: Ci - перистые, Cs - перисто-слоистые, Cc - перисто-кучевые, Ac - высококучевые, As - высокослоистые, Sc - слоисто-кучевые, Ns - слоисто-дождевые, Cu - кучевые, Cb - кучево-дождевые. Подробнее классификацию облаков см. в Атласе облаков (PDF).
T - Температура воздуха - температура, измеренная на высоте 2 м над землей.
Td - Температура точки росы - температура, при понижении до которой содержащийся в воздухе водяной пар достигнет насыщения.
f - Относительная влажность воздуха - влажноcть воздуха, измеренная на высоте 2 м над землей.
Te - Эффективная температура - температура, которую ощущает одетый по сезону человек в тени. Характеристика душности погоды. При расчете учитывается влияние влажности воздуха и скорости ветра на теплоощущения человека.
Tes - Эффективная температура на солнце - температура, которую ощущает человек, с поправкой на солнечный нагрев. Характеристика знойности погоды. Зависит от высоты солнца над горизонтом, облачности и скорости ветра. Ночью, в пасмурную погоду, а также при ветре 12 м/с и более поправка равна нулю.
P - Атмосферное давление - приведенное к уровню моря атмосферное давление.
Po - Атмосферное давление - измеренное на уровне метеостанции атмосферное давление.
Tmin - Минимальная температура - минимум температуры воздуха на высоте 2 м над землей.
Tmax - Максимальная температура - максимум температуры воздуха на высоте 2 м над землей.
R - Количество осадков - Количество выпавших осадков за период времени, мм. При наведении курсора мыши на число - период времени, за который выпало указанное количество осадков.
R24 - Количество осадков - Количество выпавших осадков за 24 часа, мм.
S - Снежный покров - Высота снежного покрова, см. При наведении курсора мыши на число - состояние снежного покрова и степень покрытия местности в баллах.